GW5296 Weather Reports


Display with metric or nautical units.
time (UTC)temp
F
wind
direction
speed
MPH
gust
MPH
rain 1hr
in
rain 24hr
in
rain mn
in
humidity
%
barometer
mb
20260509024112 82 9 7.0 10.0 0.00 0.00 0.00 75 1010.0
20260509023612 82 35 2.0 2.0 0.00 0.00 0.00 77 1010.0
20260509023111 82 330 2.0 2.0 0.00 0.00 0.00 77 1010.0
20260509022613 82 354 3.0 3.0 0.00 0.00 0.00 77 1010.0
20260509022113 82 265 2.0 2.0 0.00 0.00 0.00 76 1010.0
20260509021611 82 8 4.0 4.0 0.00 0.00 0.00 77 1010.0
20260509021112 82 353 4.0 4.0 0.00 0.00 0.00 79 1010.0
20260509020615 81 98 2.0 2.0 0.00 0.00 0.00 81 1010.0
20260509020115 80 0 1.0 2.0 0.00 0.00 0.00 83 1010.0
20260509015612 80 330 2.0 2.0 0.00 0.00 0.00 84 1010.0
20260509015116 79 344 2.0 2.0 0.00 0.00 0.00 85 1010.0
20260509014612 79 272 1.0 2.0 0.00 0.00 0.00 87 1010.0
20260509014112 79 226 0.0 0.0 0.00 0.00 0.00 88 1010.0
20260509013612 79 254 0.0 0.0 0.00 0.00 0.00 89 1010.0
20260509013112 78 263 0.0 1.0 0.00 0.00 0.00 90 1010.0
20260509012611 78 334 1.0 2.0 0.00 0.00 0.00 91 1010.0
20260509012113 78 225 0.0 0.0 0.00 0.00 0.00 91 1010.0
20260509011611 77 307 1.0 2.0 0.00 0.00 0.00 91 1010.0
20260509011114 77 237 1.0 1.0 0.00 0.00 0.00 92 1010.0
20260509010614 77 315 1.0 2.0 0.00 0.00 0.00 92 1010.0
20260509010114 77 356 2.0 2.0 0.00 0.00 0.00 92 1010.0
20260509005611 77 5 2.0 2.0 0.00 0.00 0.00 92 1009.0
20260509005112 77 2 2.0 2.0 0.00 0.00 0.00 92 1010.0
20260509004611 77 352 1.0 1.0 0.00 0.00 0.00 92 1010.0
20260509004113 77 346 2.0 2.0 0.00 0.00 0.00 92 1010.0
20260509003612 77 5 2.0 2.0 0.00 0.00 0.00 92 1010.0
20260509003112 77 268 2.0 2.0 0.00 0.00 0.00 92 1010.0
20260509002614 77 293 2.0 2.0 0.00 0.00 0.00 92 1010.0
20260509002113 77 239 0.0 0.0 0.00 0.00 0.00 91 1010.0
20260509001612 77 244 0.0 0.0 0.00 0.00 0.00 91 1009.0
20260509001111 77 235 0.0 0.0 0.00 0.00 0.00 91 1009.0
20260509000612 77 238 0.0 0.0 0.00 0.00 0.00 91 1009.0
20260509000113 77 237 0.0 0.0 0.00 0.00 0.00 91 1009.0
20260508235613 77 235 0.0 0.0 0.00 0.00 0.00 91 1009.0
20260508235113 77 236 0.0 0.0 0.00 0.00 0.00 91 1009.0
20260508234612 77 235 0.0 0.0 0.00 0.00 0.00 91 1009.0
20260508234111 77 223 0.0 0.0 0.00 0.00 0.00 91 1009.0
20260508233613 77 214 0.0 0.0 0.00 0.00 0.00 91 1009.0
20260508233112 77 224 0.0 0.0 0.00 0.00 0.00 91 1009.0
20260508232613 77 228 0.0 0.0 0.00 0.00 0.00 91 1009.0
20260508232112 77 211 0.0 0.0 0.00 0.00 0.00 91 1009.0
20260508231613 77 198 0.0 0.0 0.00 0.00 0.00 91 1009.0
20260508231112 77 198 0.0 0.0 0.00 0.00 0.00 91 1009.0
20260508230612 77 194 0.0 0.0 0.00 0.00 0.00 91 1009.0
20260508230112 77 194 0.0 0.0 0.00 0.00 0.00 91 1009.0
20260508225613 77 210 0.0 0.0 0.00 0.00 0.00 90 1009.0
20260508225111 77 213 0.0 0.0 0.00 0.00 0.00 90 1009.0
20260508224612 77 220 0.0 0.0 0.00 0.00 0.00 90 1009.0
20260508224112 77 221 0.0 0.0 0.00 0.00 0.00 90 1009.0
20260508223613 77 221 0.0 0.0 0.00 0.00 0.00 90 1009.0
20260508223111 77 221 0.0 0.0 0.00 0.00 0.00 90 1009.0
20260508222611 77 221 0.0 0.0 0.00 0.00 0.00 90 1009.0
20260508222113 77 221 0.0 0.0 0.00 0.00 0.00 90 1008.0
20260508221613 78 221 0.0 0.0 0.00 0.00 0.00 90 1008.0
20260508221116 78 221 0.0 0.0 0.00 0.00 0.00 90 1008.0
20260508220613 78 220 0.0 0.0 0.00 0.00 0.00 90 1008.0
20260508220112 78 226 0.0 0.0 0.00 0.00 0.00 89 1008.0
20260508215613 78 223 0.0 0.0 0.00 0.00 0.00 89 1009.0
20260508215113 78 230 0.0 0.0 0.00 0.00 0.00 89 1008.0
20260508214614 78 217 0.0 0.0 0.00 0.00 0.00 89 1008.0
20260508214111 78 217 0.0 0.0 0.00 0.00 0.00 89 1009.0
20260508213611 78 217 0.0 0.0 0.00 0.00 0.00 89 1009.0
20260508213115 78 217 0.0 0.0 0.00 0.00 0.00 89 1009.0
20260508212613 78 217 0.0 0.0 0.00 0.00 0.00 89 1009.0
20260508212113 78 217 0.0 0.0 0.00 0.00 0.00 88 1009.0
20260508211611 78 231 0.0 0.0 0.00 0.00 0.00 88 1009.0
20260508211112 78 247 0.0 0.0 0.00 0.00 0.00 88 1009.0
20260508210612 78 197 0.0 0.0 0.00 0.00 0.00 88 1009.0
20260508210113 78 197 0.0 0.0 0.00 0.00 0.00 87 1009.0
20260508205612 78 197 0.0 0.0 0.00 0.00 0.00 88 1009.0
20260508205113 78 197 0.0 0.0 0.00 0.00 0.00 88 1009.0
20260508204613 78 197 0.0 0.0 0.00 0.00 0.00 88 1009.0
20260508204113 78 197 0.0 0.0 0.00 0.00 0.00 88 1009.0
20260508203612 78 197 0.0 0.0 0.00 0.00 0.00 88 1009.0
20260508203112 78 197 0.0 0.0 0.00 0.00 0.00 87 1009.0
20260508202614 78 197 0.0 0.0 0.00 0.00 0.00 87 1009.0
20260508202115 78 197 0.0 0.0 0.00 0.00 0.00 87 1009.0
20260508201613 78 197 0.0 0.0 0.00 0.00 0.00 87 1009.0
20260508201112 78 197 0.0 0.0 0.00 0.00 0.00 87 1009.0
20260508200613 78 197 0.0 0.0 0.00 0.00 0.00 87 1009.0
20260508200113 78 205 0.0 0.0 0.00 0.00 0.00 88 1009.0
20260508195613 78 205 0.0 0.0 0.00 0.00 0.00 88 1009.0
20260508195114 78 209 0.0 0.0 0.00 0.00 0.00 87 1009.0
20260508194613 78 225 0.0 0.0 0.00 0.00 0.00 87 1009.0
20260508194120 78 226 0.0 0.0 0.00 0.00 0.00 88 1009.0
20260508193611 78 227 0.0 0.0 0.00 0.00 0.00 88 1009.0
20260508193113 78 239 0.0 0.0 0.00 0.00 0.00 88 1009.0
20260508192619 78 266 0.0 0.0 0.00 0.00 0.00 87 1009.0
20260508192115 78 239 0.0 0.0 0.00 0.00 0.00 87 1009.0
20260508191615 78 211 0.0 0.0 0.00 0.00 0.00 86 1009.0
20260508191115 78 190 0.0 0.0 0.00 0.00 0.00 86 1009.0
20260508190613 78 190 0.0 0.0 0.00 0.00 0.00 86 1009.0
20260508190111 78 190 0.0 0.0 0.00 0.00 0.00 86 1009.0
20260508185614 78 191 0.0 0.0 0.00 0.00 0.00 86 1010.0
20260508185113 78 201 0.0 0.0 0.00 0.00 0.00 86 1009.0
20260508184614 78 217 0.0 0.0 0.00 0.00 0.00 85 1010.0
20260508184112 78 217 0.0 0.0 0.00 0.00 0.00 85 1010.0
20260508183612 78 217 0.0 0.0 0.00 0.00 0.00 84 1010.0
20260508183112 78 217 0.0 0.0 0.00 0.00 0.39 84 1010.0
20260508182613 78 217 0.0 0.0 0.00 0.00 0.39 84 1010.0
20260508182113 78 217 0.0 0.0 0.00 0.00 0.39 84 1010.0
20260508181614 78 217 0.0 0.0 0.00 0.00 0.39 83 1010.0
20260508181111 78 217 0.0 0.0 0.00 0.00 0.39 83 1010.0
20260508180613 78 217 0.0 0.0 0.00 0.00 0.39 83 1010.0
20260508180113 78 219 0.0 0.0 0.00 0.00 0.39 84 1010.0
20260508175615 78 224 0.0 0.0 0.00 0.00 0.39 83 1010.0
20260508175112 78 239 0.0 0.0 0.00 0.00 0.39 84 1011.0
20260508174615 78 214 0.0 0.0 0.00 0.00 0.39 84 1010.0
20260508174114 78 260 1.0 2.0 0.00 0.00 0.39 84 1011.0
20260508173614 78 244 2.0 2.0 0.00 0.00 0.39 84 1011.0
20260508173114 78 230 2.0 2.0 0.00 0.00 0.39 83 1011.0
20260508172613 78 212 2.0 2.0 0.00 0.00 0.39 83 1011.0
20260508172112 78 235 0.0 0.0 0.00 0.00 0.39 83 1011.0
20260508171613 78 235 1.0 1.0 0.00 0.00 0.39 83 1011.0
20260508171112 78 235 1.0 1.0 0.00 0.00 0.39 83 1011.0
20260508170616 78 234 2.0 2.0 0.00 0.00 0.39 83 1011.0
20260508170113 78 219 2.0 2.0 0.00 0.00 0.39 82 1011.0
20260508165612 78 232 3.0 4.0 0.00 0.00 0.39 82 1011.0
20260508165113 78 256 2.0 2.0 0.00 0.00 0.39 82 1011.0
20260508164616 78 229 1.0 2.0 0.00 0.00 0.39 82 1011.0
20260508164111 78 231 3.0 3.0 0.00 0.00 0.39 82 1011.0
20260508163612 78 239 2.0 2.0 0.00 0.00 0.39 82 1011.0
20260508163115 78 233 3.0 3.0 0.00 0.00 0.39 82 1011.0
20260508162613 78 241 3.0 3.0 0.00 0.00 0.39 82 1011.0
20260508162113 78 252 3.0 3.0 0.00 0.00 0.39 82 1011.0
20260508161615 78 239 3.0 3.0 0.00 0.00 0.39 82 1011.0
20260508161115 78 246 4.0 4.0 0.00 0.00 0.39 82 1011.0
20260508160613 78 221 3.0 3.0 0.00 0.00 0.39 82 1011.0
20260508160115 79 242 5.0 6.0 0.00 0.00 0.39 81 1011.0
20260508155611 80 232 6.0 7.0 0.00 0.00 0.39 80 1011.0
20260508155114 79 192 1.0 1.0 0.00 0.00 0.39 81 1010.0
20260508154613 80 174 2.0 2.0 0.00 0.00 0.39 81 1011.0
20260508154113 80 171 2.0 2.0 0.00 0.00 0.39 80 1010.0
20260508153614 80 178 1.0 1.0 0.00 0.00 0.39 80 1010.0
20260508153114 80 182 1.0 1.0 0.00 0.00 0.39 80 1011.0
20260508152617 80 163 2.0 2.0 0.00 0.00 0.39 78 1010.0
20260508152114 80 180 1.0 1.0 0.00 0.00 0.39 77 1010.0
20260508151613 80 195 0.0 0.0 0.00 0.00 0.39 78 1010.0
20260508151111 80 212 0.0 1.0 0.00 0.00 0.39 78 1010.0
20260508150614 80 207 0.0 0.0 0.00 0.00 0.39 77 1010.0
20260508150113 80 215 0.0 0.0 0.00 0.00 0.39 77 1010.0
20260508145613 80 218 0.0 0.0 0.00 0.00 0.39 77 1010.0
20260508145113 80 202 0.0 0.0 0.00 0.00 0.39 77 1010.0
20260508144614 81 234 1.0 1.0 0.00 0.00 0.39 76 1010.0
20260508144113 81 67 1.0 1.0 0.00 0.00 0.39 74 1010.0
20260508143615 81 57 1.0 2.0 0.00 0.00 0.39 75 1010.0
20260508143114 81 139 1.0 1.0 0.00 0.00 0.39 75 1010.0
20260508142613 80 136 2.0 2.0 0.00 0.00 0.39 75 1010.0
20260508142112 80 126 3.0 3.0 0.00 0.00 0.39 75 1009.0
20260508141613 80 85 2.0 3.0 0.00 0.00 0.39 74 1009.0
20260508140803 80 106 4.0 6.0 0.00 0.00 0.39 75 1009.0
20260508140115 79 155 3.0 3.0 0.00 0.00 0.39 76 1009.0
20260508135613 79 172 4.0 4.0 0.00 0.00 0.39 78 1009.0
20260508135114 78 217 5.0 6.0 0.00 0.00 0.39 79 1009.0
20260508134613 79 214 2.0 2.0 0.00 0.00 0.39 78 1009.0
20260508134114 81 222 3.0 3.0 0.00 0.00 0.39 73 1009.0
20260508133613 80 178 1.0 1.0 0.00 0.00 0.39 72 1009.0
20260508133113 79 69 2.0 3.0 0.00 0.00 0.39 74 1009.0
20260508132613 79 134 2.0 3.0 0.00 0.00 0.39 78 1008.0
20260508132114 79 191 6.0 9.0 0.00 0.00 0.39 78 1008.0
20260508131615 79 136 6.0 8.0 0.00 0.00 0.39 77 1008.0
20260508131114 79 109 7.0 10.0 0.00 0.00 0.39 77 1007.0
20260508130613 79 121 5.0 6.0 0.00 0.00 0.39 76 1007.0
20260508130113 80 89 4.0 4.0 0.00 0.00 0.39 76 1008.0
20260508125613 80 126 8.0 9.0 0.00 0.00 0.39 75 1007.0
20260508125111 80 116 9.0 13.0 0.00 0.00 0.39 74 1007.0
20260508124611 81 74 11.0 16.0 0.00 0.00 0.39 74 1007.0
20260508124113 82 91 7.0 10.0 0.00 0.00 0.39 75 1007.0
20260508123614 83 112 10.0 13.0 0.00 0.00 0.39 75 1007.0
20260508123115 84 118 5.0 13.0 0.00 0.00 0.39 71 1007.0
20260508122614 87 91 13.0 18.0 0.00 0.00 0.39 65 1007.0
20260508122114 87 153 4.0 7.0 0.00 0.00 0.39 64 1006.0
20260508121616 87 73 1.0 2.0 0.00 0.00 0.39 65 1006.0
20260508121121 88 140 1.0 2.0 0.00 0.00 0.39 64 1006.0
20260508120613 88 71 4.0 6.0 0.00 0.00 0.39 62 1006.0
20260508120114 89 117 2.0 6.0 0.00 0.00 0.39 64 1006.0
20260508115613 88 101 4.0 6.0 0.00 0.00 0.39 68 1006.0
20260508115112 88 123 6.0 7.0 0.00 0.00 0.39 67 1006.0
20260508114613 89 131 5.0 7.0 0.00 0.00 0.39 66 1006.0
20260508114114 89 119 6.0 7.0 0.00 0.00 0.39 66 1006.0
20260508113613 89 98 5.0 8.0 0.00 0.00 0.39 66 1006.0
20260508113115 89 105 10.0 11.0 0.00 0.00 0.39 64 1006.0
20260508112614 89 86 7.0 9.0 0.00 0.00 0.39 63 1006.0
20260508112115 89 114 4.0 4.0 0.00 0.00 0.39 62 1006.0
20260508111612 89 113 6.0 7.0 0.00 0.00 0.39 64 1005.0
20260508111113 90 97 9.0 11.0 0.00 0.00 0.39 64 1005.0
20260508110611 90 147 9.0 10.0 0.00 0.00 0.39 64 1005.0
20260508110114 90 174 3.0 4.0 0.00 0.00 0.39 65 1005.0
20260508105614 91 123 12.0 15.0 0.00 0.00 0.39 63 1005.0
20260508105111 92 124 7.0 9.0 0.00 0.00 0.39 63 1005.0
20260508104611 93 209 4.0 6.0 0.00 0.00 0.39 61 1005.0
20260508104114 96 144 2.0 3.0 0.00 0.00 0.39 54 1005.0
20260508103614 98 196 0.0 0.0 0.00 0.00 0.39 52 1005.0
20260508103113 99 275 0.0 1.0 0.00 0.00 0.39 52 1005.0
20260508102615 98 255 0.0 0.0 0.00 0.00 0.39 50 1005.0
20260508102112 96 241 1.0 1.0 0.00 0.00 0.39 55 1005.0
20260508101616 96 332 1.0 2.0 0.00 0.00 0.39 55 1005.0
20260508101113 99 135 3.0 4.0 0.00 0.00 0.39 54 1005.0
20260508100613 98 202 1.0 2.0 0.00 0.00 0.39 51 1005.0
20260508100115 96 213 2.0 2.0 0.00 0.00 0.39 54 1005.0
20260508095616 95 125 3.0 6.0 0.00 0.00 0.39 55 1005.0
20260508095115 98 125 4.0 4.0 0.00 0.00 0.39 54 1005.0
20260508094611 97 219 1.0 1.0 0.00 0.00 0.39 56 1005.0
20260508094113 95 65 0.0 0.0 0.00 0.00 0.39 56 1006.0
20260508093615 95 54 6.0 7.0 0.00 0.00 0.39 57 1006.0
20260508093115 98 212 0.0 0.0 0.00 0.00 0.39 52 1006.0
20260508092611 96 249 0.0 1.0 0.00 0.00 0.39 54 1006.0
20260508091628 94 36 5.0 7.0 0.00 0.00 0.39 58 1006.0
20260508091113 94 219 1.0 2.0 0.00 0.00 0.39 56 1006.0
20260508090613 95 46 5.0 6.0 0.00 0.00 0.39 56 1006.0
20260508090116 94 288 1.0 2.0 0.00 0.00 0.39 59 1006.0
20260508085615 94 79 1.0 2.0 0.00 0.00 0.39 58 1006.0
20260508085114 94 213 0.0 1.0 0.00 0.00 0.39 57 1007.0
20260508084611 93 138 3.0 3.0 0.00 0.00 0.39 58 1007.0
20260508084114 95 77 1.0 2.0 0.00 0.00 0.39 58 1007.0
20260508083612 95 200 1.0 1.0 0.00 0.00 0.39 57 1007.0
20260508083115 94 127 0.0 0.0 0.00 0.00 0.39 57 1007.0
20260508082615 94 147 0.0 1.0 0.00 0.00 0.39 59 1007.0
20260508082114 93 150 2.0 2.0 0.00 0.00 0.39 59 1007.0
20260508081615 93 115 4.0 6.0 0.00 0.00 0.39 59 1007.0
20260508081113 94 328 6.0 7.0 0.00 0.00 0.39 60 1007.0
20260508080613 94 251 0.0 1.0 0.00 0.00 0.39 58 1007.0
20260508080111 93 43 2.0 2.0 0.00 0.00 0.39 61 1008.0
20260508075613 93 61 2.0 4.0 0.00 0.00 0.39 61 1008.0
20260508075113 92 221 0.0 0.0 0.00 0.00 0.39 62 1008.0
20260508074614 93 169 2.0 3.0 0.00 0.00 0.39 61 1008.0
20260508074111 94 74 0.0 1.0 0.00 0.00 0.39 60 1008.0
20260508073613 93 75 2.0 2.0 0.00 0.00 0.39 60 1008.0
20260508073117 93 359 4.0 4.0 0.00 0.00 0.39 59 1008.0
20260508072612 93 115 5.0 6.0 0.00 0.00 0.39 61 1008.0
20260508072114 93 41 5.0 7.0 0.00 0.00 0.39 60 1008.0
20260508071611 94 98 0.0 0.0 0.00 0.00 0.39 61 1008.0
20260508071113 92 249 2.0 2.0 0.00 0.00 0.39 62 1009.0
20260508070612 92 42 0.0 1.0 0.00 0.00 0.39 62 1009.0
20260508070114 91 156 3.0 3.0 0.00 0.00 0.39 63 1009.0
20260508065611 93 177 3.0 4.0 0.00 0.00 0.39 63 1009.0
20260508065113 92 184 1.0 1.0 0.00 0.00 0.39 63 1009.0
20260508064613 92 210 2.0 2.0 0.00 0.00 0.39 61 1009.0
20260508064115 90 176 6.0 6.0 0.00 0.00 0.39 64 1009.0
20260508063613 90 127 0.0 1.0 0.00 0.00 0.39 65 1009.0
20260508063115 90 189 3.0 3.0 0.00 0.00 0.39 64 1009.0
20260508062613 91 112 4.0 6.0 0.00 0.00 0.39 65 1009.0
20260508062111 92 176 4.0 6.0 0.00 0.00 0.39 64 1009.0
20260508061613 90 233 1.0 1.0 0.00 0.00 0.39 64 1009.0
20260508061115 90 44 1.0 2.0 0.00 0.00 0.39 65 1010.0
20260508060611 89 86 1.0 1.0 0.00 0.00 0.39 67 1010.0
20260508060111 90 141 2.0 3.0 0.00 0.00 0.39 64 1010.0
20260508055612 89 166 3.0 3.0 0.00 0.00 0.39 65 1010.0
20260508055111 89 115 2.0 4.0 0.00 0.00 0.39 65 1010.0
20260508054611 88 131 3.0 4.0 0.00 0.00 0.39 65 1010.0
20260508054111 90 107 1.0 2.0 0.00 0.00 0.39 65 1010.0
20260508053612 89 181 3.0 4.0 0.00 0.00 0.39 66 1010.0
20260508053111 88 196 4.0 4.0 0.00 0.00 0.39 67 1010.0
20260508052611 87 172 0.0 1.0 0.00 0.00 0.39 67 1010.0
20260508052111 89 92 1.0 1.0 0.00 0.00 0.39 67 1010.0
20260508051613 88 19 5.0 6.0 0.00 0.00 0.39 66 1010.0
20260508051111 87 170 1.0 1.0 0.00 0.00 0.39 67 1010.0
20260508050612 87 51 2.0 3.0 0.00 0.00 0.39 68 1010.0
20260508050111 87 176 3.0 3.0 0.00 0.00 0.39 69 1010.0
20260508045612 88 96 0.0 0.0 0.00 0.00 0.39 68 1010.0
20260508045111 87 189 0.0 0.0 0.00 0.00 0.39 68 1010.0
20260508044612 87 231 2.0 2.0 0.00 0.00 0.39 69 1010.0
20260508044112 88 215 1.0 1.0 0.00 0.00 0.39 68 1010.0
20260508043611 87 212 1.0 1.0 0.00 0.00 0.39 68 1010.0
20260508043112 87 184 1.0 1.0 0.00 0.00 0.39 70 1010.0
20260508042612 86 161 2.0 3.0 0.00 0.00 0.39 69 1010.0
20260508042111 87 234 2.0 2.0 0.00 0.00 0.39 70 1010.0
20260508041613 87 178 0.0 1.0 0.00 0.00 0.39 70 1011.0
20260508041111 85 227 2.0 2.0 0.00 0.00 0.39 72 1011.0
20260508040618 85 190 1.0 1.0 0.00 0.00 0.39 73 1011.0
20260508040111 85 167 0.0 0.0 0.00 0.00 0.39 73 1011.0
20260508035611 86 212 2.0 3.0 0.00 0.00 0.39 71 1011.0
20260508035112 84 196 0.0 0.0 0.00 0.00 0.39 74 1010.0
20260508034611 84 194 0.0 0.0 0.00 0.00 0.39 74 1010.0
20260508034111 84 220 3.0 3.0 0.00 0.00 0.39 75 1011.0
20260508033612 83 243 2.0 2.0 0.00 0.00 0.39 75 1011.0
20260508033112 82 219 3.0 4.0 0.00 0.00 0.39 76 1011.0
20260508032611 82 247 3.0 3.0 0.00 0.00 0.39 77 1011.0
20260508032113 83 218 3.0 3.0 0.00 0.00 0.39 78 1011.0
20260508031612 82 204 0.0 0.0 0.00 0.00 0.39 79 1011.0
20260508031111 81 204 0.0 0.0 0.00 0.00 0.39 83 1011.0
20260508030611 80 245 2.0 4.0 0.00 0.00 0.39 83 1011.0
20260508030111 80 254 3.0 3.0 0.00 0.00 0.39 84 1011.0
20260508025611 80 232 1.0 2.0 0.00 0.00 0.39 84 1011.0
20260508025111 80 249 2.0 3.0 0.00 0.00 0.39 85 1011.0
20260508024613 80 232 3.0 3.0 0.00 0.00 0.39 85 1011.0